Theta_e
308 308 308 309 309 309 309 309 310 310 311 312 313 314 315 316 316 302 297 308 317 324 322 300 297 297 296 293 292 295 289 287 291 294 298 304 299 303 306 306 303 307 308 310 307
307 307 307 307 307 308 308 308 308 309 310 311 312 313 314 316 306 295 307 313 324 325 303 297 294 294 291 291 291 289 285 286 291 294 295 298 296 297 296 295 297 300 298 304 306
306 306 306 306 306 307 308 308 308 308 308 309 310 312 313 313 297 295 308 312 317 312 298 296 294 294 289 289 289 288 285 288 289 292 292 293 294 295 291 291 294 294 296 299 304
305 305 305 305 305 306 307 307 307 307 307 308 309 310 312 305 286 295 306 309 317 307 299 294 291 287 286 287 290 284 288 290 290 291 290 290 292 291 291 293 294 295 295 295 299
303 303 303 304 305 306 306 306 307 306 306 307 308 310 303 288 287 296 302 300 301 304 299 295 289 286 284 285 287 285 286 289 289 290 289 290 288 290 291 293 293 293 294 294 293
303 302 303 304 304 304 305 309 310 308 305 307 308 310 288 280 293 293 291 294 294 295 296 294 291 291 286 285 284 286 287 287 288 288 288 287 288 288 292 293 291 292 293 294 295
302 302 303 303 303 303 307 312 313 312 311 310 309 295 286 283 289 289 290 289 292 292 290 294 294 289 288 285 288 287 283 286 286 286 286 287 285 286 292 293 292 292 293 294 296
301 301 302 302 301 304 307 313 314 313 312 312 311 296 283 292 290 288 289 288 290 294 292 293 292 289 286 288 285 283 281 278 284 286 287 286 281 287 290 289 290 291 292 293 294
301 301 301 302 300 303 307 308 308 308 304 302 289 285 279 292 286 288 288 285 287 292 293 295 290 285 284 279 276 277 274 276 280 286 285 284 283 288 290 288 288 290 291 289 291
301 300 300 299 300 301 305 303 302 295 293 292 288 282 282 281 285 286 289 288 288 286 286 287 282 276 276 275 270 273 274 276 276 281 282 280 280 285 288 288 289 290 291 292 290
301 299 299 298 299 299 294 288 286 283 284 279 279 279 282 284 287 284 287 284 285 281 274 281 272 269 271 274 276 274 273 271 274 280 281 281 280 282 286 286 287 289 290 291 292
300 299 299 298 298 297 289 284 283 283 276 283 282 282 283 283 278 281 287 280 278 273 277 276 269 273 275 277 272 272 270 271 275 278 277 277 279 284 286 287 288 288 289 290 292
300 299 298 297 296 288 286 285 290 287 277 278 282 280 281 282 276 277 282 280 275 272 272 271 271 275 276 274 270 270 270 271 271 274 277 276 274 278 284 287 289 290 291 291 288
300 299 297 294 287 284 283 288 290 287 267 273 277 279 281 280 276 282 282 279 275 271 271 270 273 273 272 271 271 267 274 272 272 270 267 274 266 275 280 283 287 289 290 285 283
300 299 296 295 282 282 285 288 290 284 262 275 276 284 281 276 276 277 282 279 273 272 271 269 270 271 269 271 273 269 273 271 272 270 269 269 269 274 280 280 280 283 284 280 281
299 298 294 287 284 284 287 288 285 270 260 266 275 275 275 276 276 277 277 279 278 274 273 271 274 272 271 274 274 274 272 271 272 270 265 270 271 271 272 275 276 278 278 278 278
299 298 289 288 281 286 286 284 270 264 269 264 268 274 274 272 273 273 272 269 267 259 265 270 270 272 275 270 273 272 267 261 258 258 263 273 270 273 277 278 277 275 275 276 276
299 294 288 287 286 285 281 274 264 259 259 274 273 274 270 272 271 271 270 267 269 268 263 262 261 269 273 271 266 269 268 262 258 260 263 270 269 272 279 279 278 277 276 276 275
295 283 280 285 286 281 276 263 262 264 271 271 272 266 261 270 269 269 267 263 265 267 259 259 263 271 274 273 271 268 263 270 265 266 263 268 274 279 278 277 276 276 276 275 274
282 279 279 285 282 278 269 263 262 275 275 274 264 268 256 258 264 264 266 265 269 273 269 267 259 270 272 272 272 269 271 261 263 257 254 265 267 268 272 273 275 275 275 275 275
280 274 280 283 279 272 263 256 268 277 276 273 270 263 267 263 264 260 264 270 268 271 273 262 263 265 269 264 266 266 264 265 265 263 260 259 263 274 273 274 273 275 276 275 275
276 270 281 280 270 254 259 265 277 275 276 275 272 271 267 268 262 262 262 267 272 271 268 268 262 260 263 269 272 267 263 264 257 257 262 262 261 276 275 274 274 274 275 276 276
270 271 280 278 264 256 263 270 275 273 274 272 272 273 272 269 260 268 270 274 274 271 263 264 259 253 259 261 266 261 268 269 267 266 261 259 262 276 276 274 274 273 274 276 276
269 267 271 271 270 266 261 265 267 276 273 273 271 272 270 268 271 261 269 274 276 274 278 275 256 257 256 260 260 256 260 267 261 257 261 264 267 271 272 272 273 273 274 275 275
269 266 264 261 264 261 265 269 270 270 271 274 270 268 263 258 263 265 269 271 273 275 274 268 256 257 262 266 266 264 263 264 262 264 261 267 267 270 270 272 273 274 274 274 274
268 266 263 260 266 263 265 267 270 271 268 266 264 271 269 262 265 263 266 268 267 268 265 264 258 256 258 267 267 263 265 264 266 266 266 268 267 272 269 273 272 273 273 273 274
273 273 270 266 260 262 264 270 272 273 273 273 270 270 270 271 272 271 273 273 272 266 266 265 258 253 253 264 263 254 259 261 265 262 264 263 267 270 270 272 272 272 273 273 274
Wind_Speed
17 16 16 17 17 16 15 13 12 12 12 13 13 12 12 10 9 11 14 14 16 21 14 7 5 4 2 2 3 3 1 7 11 14 17 4 4 3 1 6 5 6 6 7 5
18 18 17 17 17 16 15 14 13 12 11 10 10 11 10 8 1 18 23 28 25 10 5 5 5 4 2 2 3 5 5 11 6 12 12 11 5 7 4 4 10 15 7 9 4
20 20 19 19 18 17 16 15 13 11 11 11 11 9 9 4 4 8 31 28 20 10 5 3 4 1 3 2 5 5 10 5 7 8 4 10 18 6 6 14 14 12 10 7 6
22 22 21 21 20 19 18 18 16 11 11 8 9 9 9 1 4 9 30 27 16 8 5 6 4 1 3 5 3 5 6 10 6 6 5 8 13 15 13 17 10 12 9 4 11
21 21 21 20 20 20 22 21 19 15 11 6 4 6 0 10 6 16 26 19 9 8 7 5 3 2 3 5 9 6 6 8 7 11 7 7 14 24 32 15 12 13 17 19 14
22 21 22 21 21 22 23 18 12 6 2 2 3 3 8 11 12 15 16 9 12 7 6 2 3 2 4 4 3 7 8 12 8 10 9 13 22 10 26 10 10 13 17 21 21
21 20 20 20 20 23 17 12 11 7 6 9 13 6 26 7 7 15 17 10 6 4 4 3 1 2 5 8 5 7 16 17 12 8 10 6 26 26 24 22 24 17 19 22 25
22 22 22 21 22 23 13 12 15 17 14 9 5 6 8 2 7 25 19 10 16 7 3 7 1 1 1 6 7 8 6 7 4 5 7 7 32 8 11 10 19 18 16 16 20
21 21 22 19 20 21 9 13 13 17 19 9 9 7 5 10 17 19 12 12 12 12 6 1 3 5 11 10 5 4 7 13 12 5 7 6 31 12 8 9 15 19 14 10 12
20 21 20 18 18 17 11 16 28 15 6 3 11 6 8 9 9 17 22 8 7 11 7 12 10 7 10 11 6 17 15 14 19 12 27 27 36 28 19 14 20 18 22 18 12
20 21 19 14 18 12 4 5 7 11 19 12 5 5 4 11 3 20 19 7 9 7 7 7 13 9 10 7 6 8 13 19 24 16 24 20 29 40 24 23 26 24 21 24 21
21 23 20 8 15 9 6 6 2 6 11 6 7 3 2 4 3 23 19 9 16 16 9 6 13 11 10 6 14 13 19 18 19 20 22 21 32 34 28 21 19 20 21 18 21
21 23 22 6 11 9 9 5 6 1 7 6 4 4 6 5 7 21 17 7 9 13 12 9 4 14 14 9 21 15 13 13 22 26 15 24 31 29 27 23 23 22 20 19 10
20 20 22 8 8 3 4 9 5 2 8 16 11 9 11 6 7 8 11 6 9 10 5 5 9 12 13 11 18 18 11 20 24 18 13 11 20 28 22 25 18 19 17 7 12
19 18 17 16 2 4 5 7 5 3 7 12 7 5 9 11 4 15 8 8 9 6 8 7 6 9 11 13 19 13 20 21 25 24 19 4 13 11 13 17 24 22 16 17 16
17 14 13 5 3 1 5 4 4 10 3 6 5 6 6 7 5 7 8 7 3 3 1 4 6 2 2 10 15 16 15 22 19 5 5 15 11 6 11 13 19 20 20 20 20
17 10 6 2 4 6 4 4 8 10 5 7 4 5 4 8 5 8 7 11 8 8 8 6 3 4 3 12 10 20 15 6 8 6 6 9 12 8 12 15 18 18 20 18 18
18 5 4 2 5 1 3 7 11 3 6 2 3 4 5 8 4 8 4 4 6 3 2 5 8 4 9 9 6 10 8 3 8 8 17 18 4 6 10 10 13 14 14 18 19
10 3 3 7 5 3 7 10 8 7 4 2 3 5 6 4 1 5 5 2 3 2 4 5 6 4 5 7 3 6 8 10 6 9 6 4 6 5 17 16 16 17 18 18 20
2 2 2 11 3 6 9 4 2 2 3 2 3 2 1 4 5 5 2 4 3 2 3 2 7 5 5 2 4 5 6 4 4 6 8 7 8 7 20 23 19 19 17 16 16
4 5 3 9 4 9 7 6 3 2 2 2 3 2 3 1 3 2 4 4 2 1 2 3 4 6 4 1 2 3 4 4 3 3 5 8 5 9 13 14 17 16 15 16 16
3 4 5 5 9 2 3 6 3 3 2 1 3 4 4 3 1 3 5 7 7 5 1 4 4 6 6 7 6 5 4 4 3 7 6 10 11 6 11 13 11 14 14 13 13
3 2 4 4 6 2 4 2 1 3 2 3 3 3 2 3 2 5 5 4 6 3 4 3 3 6 11 8 5 1 4 6 5 8 10 8 9 16 21 13 11 11 12 12 13
4 4 7 8 2 7 4 1 0 2 1 3 3 4 2 3 5 5 4 3 4 5 10 6 3 9 10 10 3 4 4 12 5 4 9 13 20 7 10 13 14 14 14 12 10
5 0 4 3 5 4 4 4 3 3 1 4 1 6 7 2 3 5 4 4 6 5 3 6 5 6 13 19 16 21 19 15 13 15 12 11 15 11 6 9 8 12 12 11 11
4 4 4 2 1 5 4 5 6 2 7 5 5 4 8 7 10 8 5 4 7 3 3 1 5 2 9 17 16 19 20 14 17 18 18 15 15 6 5 5 6 9 10 12 12
1 2 5 3 2 5 5 5 7 6 4 5 8 4 8 17 13 15 13 11 11 9 6 4 3 2 8 6 9 9 12 10 7 7 8 12 10 3 7 7 6 7 9 9 9
Wind_Direction
17 10 5 357 351 345 337 333 329 325 322 318 317 322 330 340 333 28 37 319 309 287 304 324 351 335 48 280 238 106 191 221 227 227 249 278 321 321 262 260 278 226 226 267 313
12 6 1 356 348 343 338 336 333 329 324 320 311 314 324 344 342 39 346 340 335 344 337 344 326 344 316 248 259 164 205 219 226 240 264 286 275 276 246 275 292 282 264 274 289
7 2 358 353 348 343 340 337 330 324 316 313 313 317 322 333 90 345 342 335 329 358 347 307 298 262 225 170 213 210 235 235 259 259 288 291 284 230 234 257 236 266 274 260 270
5 360 355 351 346 342 336 330 327 309 306 293 298 309 316 27 80 332 336 334 333 336 4 339 4 288 254 228 244 256 246 252 285 278 279 255 300 272 229 249 254 247 244 237 260
4 359 355 351 344 339 337 329 315 300 285 277 266 268 25 54 36 334 333 328 352 349 5 7 332 300 273 330 330 237 260 270 287 294 270 288 270 272 269 260 263 262 274 269 256
4 360 356 349 346 343 336 336 334 335 281 229 245 280 75 70 324 331 336 335 353 352 323 358 300 306 265 284 272 310 293 285 289 282 282 284 273 262 273 290 255 258 259 264 262
4 1 358 350 352 344 347 356 32 55 117 135 131 81 68 78 6 347 3 318 304 293 294 279 239 131 353 321 279 275 300 298 267 235 245 244 271 252 270 275 270 263 253 257 262
5 5 0 353 359 353 11 52 71 79 91 108 38 59 96 160 3 10 357 337 331 329 274 280 77 187 220 282 317 301 278 307 33 35 277 154 270 288 302 286 279 269 266 263 263
7 4 2 359 1 354 60 63 60 57 67 43 34 77 26 336 1 353 360 324 309 331 4 259 88 73 13 360 344 336 299 304 319 261 287 207 275 258 292 300 282 292 286 281 281
6 6 7 7 5 351 87 66 60 34 10 63 47 54 24 329 354 343 352 352 25 349 32 20 46 53 23 26 328 308 307 294 293 321 321 305 289 287 285 294 287 285 292 290 279
7 7 6 12 13 3 2 3 21 21 38 83 105 103 282 309 50 360 348 356 3 49 42 20 62 21 329 314 333 314 306 296 300 309 300 275 273 281 283 278 281 281 286 291 287
6 5 1 344 30 57 61 68 32 166 88 42 98 117 296 314 344 4 0 48 32 43 3 51 48 353 332 1 2 345 320 313 298 343 319 306 283 284 283 283 289 285 282 282 293
5 3 4 11 48 36 85 85 295 279 84 25 19 16 24 346 34 1 8 2 32 33 22 70 17 346 7 350 349 339 308 309 301 310 272 268 268 279 280 261 259 259 265 278 325
1 3 4 353 50 332 54 338 340 130 80 345 355 14 347 338 50 356 360 39 24 23 27 56 330 353 348 11 346 325 313 315 305 310 301 51 293 295 289 286 281 281 277 3 9
359 6 12 31 138 48 320 320 311 52 61 332 342 308 347 50 300 352 345 20 50 23 48 303 303 351 9 351 332 295 307 292 285 275 295 294 259 296 298 305 355 351 12 21 9
358 14 14 20 31 102 311 304 47 44 262 332 331 3 19 31 10 322 16 14 80 357 335 293 289 31 282 326 310 311 305 281 270 243 228 269 239 54 26 353 7 15 13 6 0
351 15 49 64 308 320 327 54 41 93 347 311 339 0 2 359 2 8 14 40 49 28 9 329 268 313 299 320 298 347 357 344 5 360 288 328 339 49 26 21 16 6 1 0 357
345 46 31 108 298 305 63 53 72 237 233 299 21 359 41 11 21 348 20 35 19 92 5 5 342 17 337 348 304 346 10 329 319 326 294 303 246 54 39 31 25 14 0 354 357
0 5 30 331 342 69 73 52 189 197 175 117 39 53 329 357 35 7 12 215 205 34 92 16 273 323 304 333 31 327 7 298 272 278 257 288 342 328 14 19 19 8 359 357 353
53 24 301 333 28 64 72 155 143 222 110 101 121 95 198 280 21 47 357 234 136 117 147 241 294 251 315 11 26 120 293 0 355 320 301 309 312 1 7 0 2 4 354 348 354
47 45 268 346 60 49 97 209 212 111 95 150 185 127 215 276 174 280 241 258 227 329 328 144 140 278 19 70 307 340 3 346 263 259 294 318 276 37 19 0 355 349 346 346 354
57 43 327 0 54 29 94 177 182 136 85 116 101 173 164 183 263 253 232 208 191 158 314 210 191 278 262 282 206 192 183 166 115 293 278 268 271 119 38 23 355 341 346 349 351
72 259 336 31 99 1 316 10 135 120 178 151 204 172 156 208 347 228 233 256 157 128 165 239 288 330 333 357 19 121 265 271 283 254 250 257 279 328 352 349 344 341 346 345 347
68 32 340 41 99 115 124 252 207 208 182 144 178 81 139 239 210 248 253 269 172 306 271 215 155 177 216 237 166 275 237 277 193 224 269 265 292 348 334 331 331 334 336 348 358
30 130 177 332 351 78 69 163 147 190 300 182 282 188 165 217 266 228 232 280 279 254 186 142 230 200 248 263 267 268 265 256 239 251 250 283 297 289 299 310 305 316 329 342 348
97 96 357 102 354 65 347 224 188 225 151 249 181 217 177 194 200 211 204 201 223 329 132 345 268 98 280 266 258 269 266 245 247 261 257 265 276 206 271 271 275 303 320 335 343
322 30 99 302 43 83 226 209 208 160 255 195 195 184 227 237 234 235 243 237 230 188 175 199 188 74 266 341 316 302 239 212 203 206 204 249 251 278 296 283 285 281 303 316 335